Regional Weather Roundup
Issued by NWS

Home | Current Version | Previous Version | Text Only | Print | Product List | Glossary On
Versions: 1 2 3 4 5 6 7 8 9 10 11 12 13 14 15 16 17 18 19 20 21 22 23 24 25 26 27 28 29 30 31 32 33 34 35 36 37 38 39 40 41 42 43 44 45 46 47 48 49 50
000
ASUS43 KBIS 221410
RWRND

NORTH DAKOTA REGIONAL WEATHER ROUNDUP
NATIONAL WEATHER SERVICE BISMARCK ND
900 AM CDT FRI SEP 22 2017

NOTE: "FAIR" INDICATES FEW OR NO CLOUDS BELOW 12,000 FEET WITH NO
SIGNIFICANT WEATHER AND/OR OBSTRUCTIONS TO VISIBILITY.


NDZ001>003-009>011-017-221500-
NORTHWEST NORTH DAKOTA

CITY           SKY/WX    TMP DP  RH WIND       PRES   REMARKS
WILLISTON      CLOUDY    46  39  76 N12       29.98R
MINOT          PTSUNNY   48  40  73 N13       29.90F
MINOT AFB      CLOUDY    47  39  75 N12       29.90R
$$

NDZ018>021-031>035-040>046-221500-
SOUTHWEST NORTH DAKOTA

CITY           SKY/WX    TMP DP  RH WIND       PRES   REMARKS
BISMARCK       CLOUDY    55  43  63 NE16G25   29.80R
DICKINSON      CLOUDY    49  38  65 N17       29.85R
GARRISON         N/A     50  39  66 NE17G24   29.85F
HETTINGER ARPT CLOUDY    51  37  58 N20       29.81S
$$

NDZ004>008-012>016-024-026-027-054-221500-
NORTHEAST NORTH DAKOTA

CITY           SKY/WX    TMP DP  RH WIND       PRES   REMARKS
GRAND FORKS    CLOUDY    58  53  84 N15       29.81F
GRND FRKS AFB  CLOUDY    56  50  81 N13       29.83S
DEVILS LAKE    CLOUDY    52  44  74 NE15      29.87R
$$

NDZ022-023-025-028>030-036>039-047>053-221500-
SOUTHEAST NORTH DAKOTA

CITY           SKY/WX    TMP DP  RH WIND       PRES   REMARKS
FARGO          CLOUDY    63  61  93 N10       29.75S
JAMESTOWN      CLOUDY    58  49  72 NE15G30   29.77S
$$





USA.gov is the U.S. government's official web portal to all federal, state and local government web resources and services.